Location: Cambroso
(45.2833°N, 12.0850°E)
Time: 15:25:47
(UTC+00:00)

Cosmos 1703 - Pass Details

Date: 21 January 2021
Orbit: 524 x 538 km, 82.5° (Epoch: 25 February)

Event Time Altitude Azimuth Distance (km) Brightness Sun altitude
Rises 17:15:42 0° 159° (SSE) 2,653 6.8 -12.6°
Reaches altitude 10° 17:18:05 10° 146° (SE) 1,767 5.7 -13.0°
Maximum altitude 17:21:18 25° 90° (E) 1,078 4.2 -13.6°
Enters shadow 17:22:14 23° 66° (ENE) 1,154 4.3 -13.7°
